NOAA 16 DEB, 41657

Orbit data source: Space-Track

NOAA 16 DEB, 41657 is space debris in SSO originally from a launch on Thu, 21 Sep 2000 UTC launched from the Air Force Western Test Range (AFWTR). Debris objects in space refer to the collection of defunct objects orbiting the Earth. Examples of debris include non-operational satellites, rocket bodies, and fragments generated from explosions, collisions, or faulty payload assembly.

Loading next visibility...
Identifier
41657, 2000-055NW
Orbit
SSO
Country
Flag of USUS
Related business
Manufacturer
Unknown
Mission
Spacecraft
Bus & Motor
Unknown
Mass
Unknown
Launch date (UTC)
2000-09-21 (25 years ago)
Launch vehicle
Unknown
Launch site
Air Force Western Test Range (AFWTR)
Object type
Payload
Rocket body
Debris
Shape & HBR
Unknown shape, 0.1 m
Radar Cross Section
Small (<0.1 m²)

Expand to show TLE details & history
Last TLE update: 1 day ago

TLE from 1 day ago
0 NOAA 16 DEB
1 41657U 00055NW  25287.62005188  .00005129  00000-0  19864-2 0  9994
2 41657  98.6454 349.2406 0014479 141.0898 219.1329 14.30395708490892
Epoch: 2025-10-14T14:52Z
TLE epoch observation values (Epoch: 2025-10-14T14:52:52.482Z)
Latitude
-0.00005°
Longitude
102.61606°
Altitude
801.398 km
Speed
7.449 km/s
True Right ascension
23h 16m 57s
True Declination
0° 00' 00"
Sunlit
Object was in full shadow at epoch
Visualization orbit readout
Latitude
Unknown
Longitude
Unknown
Altitude
Unknown
Speed
Unknown
Apparent Right ascension
Unknown
Apparent Declination
Unknown
Sunlit
N/A
Visualization observer readout
Local Sidereal Time
15:52:36
Azimuth
Unknown
Elevation
Unknown
Doppler factor
Unknown
Orbital elements
Apogee altitude
797.925 km
Perigee altitude
777.175 km
Semi-major axis
7,165.687 km
Eccentricity
0.00145
Inclination
98.6454°
RAAN
349.2406°
Arg. of periapsis
141.0898°
True anomaly
219.02833°
Mean anomaly
219.1329°
Eccentric anomaly
219.0806°
Mean motion
3.57813 °/min
Orbital period
100.61 mins
BSTAR
0.0019864
Loading maneuver chart data...
Computing Atmospheric mass density...

Documentation

Showing up to 5 results
|